When you browse on this site, cookies collect data to enhance your experience and personalize the content and advertising you see.
Visit our Privacy Policy to learn more. By continuing to use the site, you agree to this use of cookies and data.
  • In Lithuania
  • List of Countries
  • For 7 days
  • Water Temperature
  • Satellite Maps
  • Weather Map
  • Weather Widgets
  • user-avatar
    Login

    Hourly Weather Biskira

    Today, 11 December, Tuesday

    Time Temperature Precipitation Wind Pressure Humidity
    00:00 +13°C° 0 mm 0 mps 758 mmHg 55%
    01:00 +13°C° 0 mm 0 mps 758 mmHg 55%
    02:00 +12°C° 0 mm 0 mps 758 mmHg 56%
    03:00 +12°C° 0 mm 0 mps 757 mmHg 57%
    04:00 +12°C° 0 mm 0 mps 757 mmHg 57%
    05:00 +11°C° 0 mm 0 mps 757 mmHg 58%
    06:00 +11°C° 0 mm 0 mps 757 mmHg 58%
    07:00 +13°C° 0 mm 0 mps 757 mmHg 53%
    08:00 +15°C° 0 mm 0 mps 757 mmHg 47%
    09:00 +16°C° 0 mm 0 mps 757 mmHg 42%
    10:00 +19°C° 0 mm 1 mps 757 mmHg 40%
    11:00 +20°C° 0 mm 1 mps 757 mmHg 38%
    12:00 +20°C° 0 mm 1 mps 757 mmHg 37%
    13:00 +20°C° 0 mm 1 mps 756 mmHg 37%
    14:00 +20°C° 0 mm 1 mps 756 mmHg 36%
    15:00 +21°C° 0 mm 1 mps 756 mmHg 36%
    16:00 +19°C° 0 mm 1 mps 756 mmHg 41%
    17:00 +18°C° 0 mm 1 mps 756 mmHg 46%
    18:00 +16°C° 0 mm 1 mps 756 mmHg 50%
    19:00 +14°C° 0 mm 0 mps 756 mmHg 51%
    20:00 +14°C° 0 mm 0 mps 756 mmHg 52%
    21:00 +13°C° 0 mm 0 mps 756 mmHg 54%
    22:00 +13°C° 0 mm 0 mps 756 mmHg 54%
    23:00 +13°C° 0 mm 0 mps 756 mmHg 55%

    Tomorrow, 12 December, Wednesday

    Time Temperature Precipitation Wind Pressure Humidity
    00:00 +12°C° 0 mm 0 mps 756 mmHg 56%
    01:00 +12°C° 0 mm 0 mps 756 mmHg 56%
    02:00 +12°C° 0 mm 0 mps 755 mmHg 57%
    03:00 +11°C° 0 mm 0 mps 755 mmHg 57%
    04:00 +11°C° 0 mm 0 mps 755 mmHg 57%
    05:00 +11°C° 0 mm 0 mps 755 mmHg 58%
    06:00 +11°C° 0 mm 0 mps 755 mmHg 58%
    07:00 +12°C° 0 mm 0 mps 756 mmHg 52%
    08:00 +14°C° 0 mm 0 mps 756 mmHg 46%
    09:00 +16°C° 0 mm 0 mps 756 mmHg 40%
    10:00 +19°C° 0 mm 1 mps 756 mmHg 38%
    11:00 +20°C° 0 mm 1 mps 755 mmHg 35%
    12:00 +21°C° 0 mm 1 mps 755 mmHg 33%
    13:00 +21°C° 0 mm 1 mps 755 mmHg 32%
    14:00 +21°C° 0 mm 1 mps 754 mmHg 32%
    15:00 +20°C° 0 mm 2 mps 754 mmHg 31%
    16:00 +20°C° 0 mm 1 mps 754 mmHg 35%
    17:00 +18°C° 0 mm 1 mps 754 mmHg 39%
    18:00 +16°C° 0 mm 1 mps 754 mmHg 43%
    19:00 +15°C° 0 mm 1 mps 754 mmHg 43%
    20:00 +15°C° 0 mm 1 mps 754 mmHg 44%
    21:00 +15°C° 0 mm 1 mps 754 mmHg 44%
    22:00 +14°C° 0 mm 1 mps 754 mmHg 45%
    23:00 +14°C° 0 mm 1 mps 754 mmHg 45%

    Day after tomorrow, 13 December, Thursday

    Time Temperature Precipitation Wind Pressure Humidity
    00:00 +14°C° 0 mm 1 mps 753 mmHg 46%
    01:00 +13°C° 0 mm 1 mps 753 mmHg 47%
    02:00 +13°C° 0 mm 1 mps 753 mmHg 48%
    03:00 +13°C° 0 mm 1 mps 753 mmHg 49%
    04:00 +13°C° 0 mm 1 mps 753 mmHg 51%
    05:00 +12°C° 0 mm 1 mps 752 mmHg 53%
    06:00 +12°C° 0 mm 1 mps 752 mmHg 54%
    07:00 +14°C° 0 mm 1 mps 752 mmHg 51%
    08:00 +15°C° 0 mm 1 mps 752 mmHg 47%
    09:00 +18°C° 0 mm 1 mps 752 mmHg 43%
    10:00 +18°C° 0 mm 1 mps 752 mmHg 42%
    11:00 +19°C° 0 mm 1 mps 751 mmHg 41%
    12:00 +19°C° 0 mm 2 mps 751 mmHg 40%
    13:00 +19°C° 0 mm 2 mps 750 mmHg 39%
    14:00 +19°C° 0 mm 2 mps 749 mmHg 39%
    15:00 +19°C° 0 mm 2 mps 749 mmHg 39%
    16:00 +18°C° 0 mm 2 mps 749 mmHg 43%
    17:00 +17°C° 0 mm 2 mps 749 mmHg 47%
    18:00 +16°C° 0 mm 2 mps 748 mmHg 51%
    19:00 +16°C° 0 mm 2 mps 749 mmHg 51%
    20:00 +16°C° 0 mm 2 mps 749 mmHg 50%
    21:00 +16°C° 0 mm 2 mps 749 mmHg 50%
    22:00 +14°C° 0.2 mm 3 mps 749 mmHg 53%
    23:00 +14°C° 0.2 mm 3 mps 749 mmHg 57%

    14 December, Friday

    Time Temperature Precipitation Wind Pressure Humidity
    00:00 +14°C° 0.2 mm 4 mps 749 mmHg 61%
    01:00 +13°C° 0 mm 4 mps 749 mmHg 59%
    02:00 +12°C° 0 mm 5 mps 748 mmHg 57%
    03:00 +12°C° 0 mm 5 mps 748 mmHg 55%
    04:00 +10°C° 0 mm 5 mps 748 mmHg 56%
    05:00 +10°C° 0 mm 5 mps 748 mmHg 57%
    06:00 +9°C° 0 mm 5 mps 748 mmHg 58%
    07:00 +10°C° 0 mm 7 mps 748 mmHg 56%
    08:00 +11°C° 0 mm 8 mps 748 mmHg 53%
    09:00 +11°C° 0 mm 10 mps 748 mmHg 50%
    10:00 +12°C° 0.7 mm 11 mps 747 mmHg 51%
    11:00 +13°C° 0.7 mm 13 mps 747 mmHg 52%
    12:00 +13°C° 0.7 mm 14 mps 746 mmHg 53%
    13:00 +14°C° 0 mm 14 mps 746 mmHg 51%
    14:00 +15°C° 0 mm 14 mps 746 mmHg 50%
    15:00 +17°C° 0 mm 14 mps 747 mmHg 49%
    16:00 +15°C° 0 mm 13 mps 748 mmHg 52%
    17:00 +14°C° 0 mm 12 mps 749 mmHg 56%
    18:00 +13°C° 0 mm 11 mps 750 mmHg 59%
    19:00 +13°C° 0 mm 10 mps 751 mmHg 61%
    20:00 +13°C° 0 mm 9 mps 752 mmHg 63%
    21:00 +12°C° 0 mm 9 mps 753 mmHg 64%
    22:00 +12°C° 0 mm 10 mps 753 mmHg 64%
    23:00 +12°C° 0 mm 10 mps 754 mmHg 63%

    15 December, Saturday

    Time Temperature Precipitation Wind Pressure Humidity
    00:00 +13°C° 0 mm 11 mps 754 mmHg 63%
    01:00 +12°C° 0 mm 10 mps 754 mmHg 64%
    02:00 +12°C° 0 mm 9 mps 755 mmHg 65%
    03:00 +11°C° 0 mm 8 mps 755 mmHg 67%
    04:00 +11°C° 0 mm 7 mps 755 mmHg 69%
    05:00 +11°C° 0 mm 7 mps 756 mmHg 71%
    06:00 +11°C° 0 mm 6 mps 756 mmHg 74%
    07:00 +11°C° 0 mm 6 mps 757 mmHg 70%
    08:00 +12°C° 0 mm 7 mps 758 mmHg 66%
    09:00 +14°C° 0 mm 7 mps 758 mmHg 62%
    10:00 +15°C° 0 mm 7 mps 758 mmHg 57%
    11:00 +16°C° 0 mm 7 mps 758 mmHg 53%
    12:00 +17°C° 0 mm 7 mps 758 mmHg 48%
    13:00 +17°C° 0 mm 7 mps 758 mmHg 48%
    14:00 +17°C° 0 mm 7 mps 758 mmHg 47%
    15:00 +17°C° 0 mm 6 mps 758 mmHg 47%
    16:00 +16°C° 0 mm 6 mps 758 mmHg 50%
    17:00 +15°C° 0 mm 5 mps 759 mmHg 54%
    18:00 +14°C° 0 mm 4 mps 759 mmHg 57%
    19:00 +14°C° 0 mm 4 mps 760 mmHg 59%
    20:00 +13°C° 0 mm 4 mps 760 mmHg 61%
    21:00 +13°C° 0 mm 4 mps 760 mmHg 63%
    22:00 +13°C° 0 mm 4 mps 760 mmHg 64%
    23:00 +12°C° 0 mm 4 mps 760 mmHg 66%

    16 December, Sunday

    Time Temperature Precipitation Wind Pressure Humidity
    00:00 +12°C° 0 mm 4 mps 761 mmHg 67%
    01:00 +12°C° 0 mm 4 mps 761 mmHg 67%
    02:00 +11°C° 0 mm 3 mps 761 mmHg 68%
    03:00 +11°C° 0 mm 3 mps 761 mmHg 68%
    04:00 +11°C° 0 mm 3 mps 761 mmHg 67%
    05:00 +11°C° 0 mm 3 mps 761 mmHg 66%
    06:00 +10°C° 0 mm 3 mps 761 mmHg 64%
    07:00 +13°C° 0 mm 2 mps 761 mmHg 59%
    08:00 +14°C° 0 mm 2 mps 762 mmHg 55%
    09:00 +15°C° 0 mm 2 mps 762 mmHg 50%
    10:00 +16°C° 0 mm 1 mps 762 mmHg 47%
    11:00 +18°C° 0 mm 1 mps 761 mmHg 44%
    12:00 +18°C° 0 mm 1 mps 761 mmHg 41%
    13:00 +19°C° 0 mm 1 mps 760 mmHg 41%
    14:00 +19°C° 0 mm 1 mps 760 mmHg 40%
    15:00 +19°C° 0 mm 1 mps 760 mmHg 39%
    16:00 +18°C° 0 mm 1 mps 760 mmHg 44%
    17:00 +16°C° 0 mm 1 mps 760 mmHg 49%
    18:00 +14°C° 0 mm 0 mps 760 mmHg 53%
    19:00 +13°C° 0 mm 0 mps 761 mmHg 54%
    20:00 +13°C° 0 mm 0 mps 761 mmHg 55%
    21:00 +13°C° 0 mm 0 mps 761 mmHg 55%
    22:00 +13°C° 0 mm 1 mps 761 mmHg 55%
    23:00 +13°C° 0 mm 1 mps 761 mmHg 55%
    Show more